Mumbai, India

11:43 PM IST on August 29, 2016 (GMT +0530)
Chhatrapati Shivaji International

Weather History for VABB - March, 2014

Change the Weather History Date:

Sunday, March 23, 2014

  Actual Average Record
Temperature  
Mean Temperature 79 °F -  
Max Temperature 90 °F 89 °F 100 °F (2016)
Min Temperature 68 °F 74 °F 68 °F (2014)
Cooling Degree Days 14    
Growing Degree Days 29 (Base 50)    
Moisture  
Dew Point 70 °F    
Average Humidity 69    
Maximum Humidity 93    
Minimum Humidity 31    
Precipitation  
Precipitation 0.00 in - - ()
Sea Level Pressure  
Sea Level Pressure 29.80 in    
Wind  
Wind Speed 4 mph ()    
Max Wind Speed 15 mph    
Max Gust Speed 21 mph    
Visibility 2.8 miles    
Events      
Averages and records for this station are not official NWS values.
T = Trace of Precipitation, MM = Missing Value Source: Averaged Metar Reports

Daily Weather History Graph

Daily Weather History Graph

Search for Another Location

Airport or City:

Trip Planner

Search our weather history database for the weather conditions in past years. The results will help you decide how hot, cold, wet, or windy it might be!

Date:

Astronomy

Mar. 23, 2014 Rise Set
Actual Time 6:40 AM IST 6:50 PM IST
Civil Twilight 6:18 AM IST 7:12 PM IST
Nautical Twilight 5:53 AM IST 7:37 PM IST
Astronomical Twilight 5:27 AM IST 8:03 PM IST
Moon No Moon Rise 11:33 AM IST (3/23)
Length of Visible Light 12h 53m
Length of Day
12h 09m
Waning Gibbous, 59% of the Moon is Illuminated
Mar 23
Waning Gibbous
Mar 24
Last Quarter
Mar 31
New
Apr 7
First Quarter
Apr 15
Full

Hourly Weather History & Observations

Time (IST) Temp. Heat Index Dew Point Humidity Pressure Visibility Wind Dir Wind Speed Gust Speed Precip Events Conditions
12:10 AM 77.0 °F - 69.8 °F 78% 29.80 in 2.5 mi Variable 2.3 mph - N/A   Haze
12:40 AM 77.0 °F - 69.8 °F 78% 29.80 in 2.5 mi Calm Calm - N/A   Haze
1:10 AM 77.0 °F - 69.8 °F 78% 29.77 in 2.5 mi NNW 3.5 mph - N/A   Haze
1:40 AM 77.0 °F - 69.8 °F 78% 29.77 in 2.5 mi NNW 5.8 mph - N/A   Haze
2:10 AM 77.0 °F - 69.8 °F 78% 29.77 in 2.5 mi North 3.5 mph - N/A   Haze
2:30 AM 74 °F - 69 °F 78% 29.78 in 1 mi Calm Calm - -   Haze
2:40 AM 77.0 °F - 69.8 °F 78% 29.77 in 2.5 mi North 3.5 mph - N/A   Haze
3:10 AM 77.0 °F - 69.8 °F 78% 29.77 in 2.2 mi NE 3.5 mph - N/A   Smoke
3:40 AM 77.0 °F - 69.8 °F 78% 29.77 in 2.2 mi Calm Calm - N/A   Haze
4:10 AM 75.2 °F - 69.8 °F 83% 29.77 in 2.2 mi NNE 3.5 mph - N/A   Haze
4:40 AM 75.2 °F - 69.8 °F 83% 29.77 in 2.2 mi NNE 3.5 mph - N/A   Haze
5:10 AM 75.2 °F - 69.8 °F 83% 29.80 in 2.2 mi Calm Calm - N/A   Haze
5:30 AM 71 °F - 69 °F 93% 29.80 in 1 mi Calm Calm - -   Haze
5:40 AM 75.2 °F - 69.8 °F 83% 29.80 in 2.2 mi NNE 3.5 mph - N/A   Haze
6:10 AM 75.2 °F - 69.8 °F 83% 29.80 in 2.2 mi NNE 3.5 mph - N/A   Haze
6:40 AM 75.2 °F - 69.8 °F 83% 29.80 in 2.2 mi Calm Calm - N/A   Haze
7:10 AM 75.2 °F - 69.8 °F 83% 29.83 in 2.2 mi NNE 3.5 mph - N/A   Haze
8:10 AM 77.0 °F - 69.8 °F 78% 29.83 in 1.9 mi North 4.6 mph - N/A   Haze
8:30 AM 77 °F - 70 °F 73% 29.85 in 1 mi Calm Calm - -   Haze
8:40 AM 77.0 °F - 69.8 °F 78% 29.86 in 1.9 mi NNE 4.6 mph - N/A   Haze
9:10 AM 78.8 °F - 68.0 °F 69% 29.86 in 1.9 mi North 3.5 mph - N/A   Haze
9:40 AM 80.6 °F 83.2 °F 68.0 °F 65% 29.86 in 2.2 mi North 5.8 mph - N/A   Haze
10:10 AM 82.4 °F 84.6 °F 66.2 °F 58% 29.86 in 2.5 mi NNW 6.9 mph - N/A   Smoke
10:40 AM 86.0 °F 87.3 °F 64.4 °F 48% 29.86 in 3.1 mi NNW 4.6 mph - N/A   Smoke
11:10 AM 87.8 °F 88.5 °F 62.6 °F 43% 29.83 in 3.7 mi WNW 5.8 mph - N/A   Unknown
11:30 AM 87 °F - 65 °F 38% 29.84 in 1 mi NW 6.9 mph - -   Smoke
11:40 AM 89.6 °F 90.1 °F 62.6 °F 40% 29.83 in 4.3 mi West 3.5 mph - N/A   Unknown
12:10 PM 86.0 °F 90.4 °F 69.8 °F 58% 29.80 in 5.0 mi West 13.8 mph - N/A   Unknown
12:40 PM 87.8 °F 93.8 °F 71.6 °F 58% 29.80 in 5.6 mi West 9.2 mph 20.7 mph N/A   Unknown
1:10 PM 87.8 °F 93.8 °F 71.6 °F 58% 29.80 in 5.6 mi West 15.0 mph - N/A   Unknown
1:40 PM 87.8 °F 92.6 °F 69.8 °F 55% 29.77 in 4.3 mi West 12.7 mph - N/A   Unknown
2:10 PM 89.6 °F 92.2 °F 66.2 °F 46% 29.77 in 4.3 mi West 10.4 mph - N/A   Unknown
2:30 PM 90 °F - 63 °F 31% 29.78 in 1 mi NW 6.9 mph - -  
2:40 PM 89.6 °F 93.4 °F 68.0 °F 49% 29.77 in 4.3 mi West 12.7 mph - N/A   Unknown
3:10 PM 89.6 °F 89.5 °F 60.8 °F 38% 29.77 in 4.3 mi WNW 13.8 mph - N/A   Unknown
3:40 PM 87.8 °F 92.6 °F 69.8 °F 55% 29.74 in 4.3 mi WNW 11.5 mph - N/A   Unknown
4:10 PM 87.8 °F 93.8 °F 71.6 °F 58% 29.74 in 4.3 mi WNW 9.2 mph - N/A   Unknown
4:40 PM 87.8 °F 92.6 °F 69.8 °F 55% 29.74 in 4.3 mi WNW 10.4 mph - N/A   Unknown
5:10 PM 87.8 °F 92.6 °F 69.8 °F 55% 29.74 in 4.3 mi WNW 11.5 mph - N/A   Unknown
5:30 PM 87 °F - 72 °F 53% 29.73 in 2 mi NW 6.9 mph - -  
7:10 PM 82.4 °F 88.2 °F 73.4 °F 74% 29.80 in 3.1 mi WNW 9.2 mph - N/A   Smoke
7:40 PM 80.6 °F 85.4 °F 73.4 °F 79% 29.80 in 3.1 mi WNW 8.1 mph - N/A   Smoke
8:10 PM 80.6 °F 85.4 °F 73.4 °F 79% 29.80 in 3.1 mi NW 9.2 mph - N/A   Smoke
8:30 PM 81 °F - 74 °F 73% 29.82 in 1 mi NW 4.6 mph - -   Haze
8:40 PM 80.6 °F 80.3 °F 53.6 °F 39% 29.83 in 3.1 mi WNW 8.1 mph - N/A   Smoke
9:10 PM 80.6 °F 85.4 °F 73.4 °F 79% 29.83 in 3.1 mi WNW 5.8 mph - N/A   Haze
9:40 PM 80.6 °F 86.2 °F 75.2 °F 84% 29.83 in 3.1 mi WNW 8.1 mph - N/A   Haze
10:10 PM 78.8 °F - 75.2 °F 89% 29.83 in 3.1 mi West 6.9 mph - N/A   Haze
10:40 PM 78.8 °F - 75.2 °F 89% 29.86 in 3.1 mi NW 4.6 mph - N/A   Haze
11:10 PM 78.8 °F - 75.2 °F 89% 29.86 in 3.1 mi NNW 4.6 mph - N/A   Haze
11:30 PM 78 °F - 74 °F 83% 29.86 in 1 mi Calm Calm - -   Haze
11:40 PM 78.8 °F - 75.2 °F 89% 29.83 in 3.1 mi WNW 4.6 mph - N/A   Haze